Location: Condamine
(44.4579°N, 6.7453°E)
Time: 19:53:44
(UTC+00:00)

Daily predictions for brighter satellites

Satellite Brightness Start Highest point End
(mag) Time Altitude Azimuth Time Altitude Azimuth Time Altitude Azimuth
H-2A R/B 2.4 16:58:59 10° SE 17:04:06 47° ENE 17:09:19 10° N
Cosmos 2098 4.2 17:02:26 10° S 17:05:25 86° E 17:08:48 10° N
Cosmos 1703 3.5 17:02:23 10° N 17:06:11 46° ENE 17:09:56 10° SSE
Landsat 5 4.5 17:03:14 10° NE 17:07:08 30° E 17:11:03 10° SSE
Cosmos 389 Rocket 2.7 17:05:18 10° SSW 17:08:40 73° W 17:12:07 10° N
Cosmos 2360 Rocket 3.9 17:07:07 10° ESE 17:08:59 12° E 17:10:50 10° ENE
Okean 1 Rocket 3.7 17:05:21 10° SSW 17:09:38 60° W 17:13:58 10° N
Tiangong 2.1 17:07:13 10° SW 17:10:12 36° SSE 17:13:10 10° E
Cosmos 2123 Rocket 4.5 17:05:02 10° N 17:10:55 39° ENE 17:16:44 10° SE
USA 215 3.7 17:04:54 10° NE 17:11:19 60° NNW 17:17:42 10° WSW
Okean 1-7 Rocket 4.3 17:11:38 10° N 17:15:36 31° ENE 17:19:34 10° SE
Cosmos 405 Rocket 2.9 17:12:42 10° N 17:16:37 53° ENE 17:20:33 10° SSE
Okean-O 4.5 17:15:36 10° E 17:17:24 12° ENE 17:19:11 10° NE
CZ-2C R/B 4.4 17:12:23 10° S 17:18:01 50° W 17:23:37 10° NNW
deb Chang Zheng 4 3.5 17:14:28 10° SSE 17:18:36 65° ENE 17:22:48 10° N
CZ-4B R/B 3.3 17:13:46 10° SSE 17:19:20 62° ENE 17:24:56 10° N
COSMO-SKYMED 1 2.9 17:16:40 10° NNE 17:20:50 44° E 17:24:59 10° S
PSLV R/B 4.2 17:17:07 10° S 17:21:09 73° WSW 17:25:08 10° NNW
Cosmos 1125 Rocket 4.5 17:18:52 10° SW 17:23:58 50° WNW 17:29:05 10° NNE
ARGOS 3.5 17:18:59 10° SE 17:24:03 43° ENE 17:29:09 10° N
Lacrosse 4 Rocket 2.8 17:21:32 10° N 17:24:56 22° NE 17:27:47 13° E
SL-19 R/B 4.3 17:19:21 10° NNE 17:25:04 72° ESE 17:30:36 10° S
Gbstr 26 Del rocket 4.5 17:18:47 10° WNW 17:25:46 83° SW 17:33:47 10° SE
Cosmos 1269 Rocket 4.0 17:21:04 10° NNW 17:26:21 66° ENE 17:31:35 10° SSE
PAYLOAD B 4.4 17:23:11 10° SSE 17:28:43 81° WSW 17:34:19 10° NNW
Cosmos 1892 Rocket 3.5 17:24:19 10° N 17:28:48 86° E 17:33:12 10° S
Cosmos 2263 Rocket 2.1 17:24:24 10° NNW 17:30:01 82° ENE 17:35:35 10° SSE
Cosmos 1980 Rocket 2.9 17:26:33 10° SW 17:32:07 57° WNW 17:37:46 10° NNE
ATLAS 3B R/B 4.0 17:26:40 10° WSW 17:32:40 36° NW 17:38:58 10° NNE
NOSS 3-1 (A) 4.2 17:29:32 10° SSE 17:33:43 25° ESE 17:37:47 12° ENE
Cosmos 2227 4.2 17:28:32 10° NNW 17:34:19 70° ENE 17:40:02 10° SSE
MOS 1-B Rocket 4.1 17:30:05 10° NNE 17:36:35 55° E 17:42:16 10° S
Cosmos 1328 3.8 17:35:37 10° N 17:39:38 62° E 17:43:37 10° SSE
CZ-2D R/B 3.9 17:39:10 10° S 17:42:57 58° W 17:46:47 10° NNW
Cosmos 2251 Rocket 4.4 17:39:55 10° N 17:44:26 28° ENE 17:47:22 17° ESE
CZ-2C R/B 2.7 17:39:17 10° NNE 17:44:52 66° ESE 17:50:20 10° S
SKYMED 3 4.5 17:40:31 10° NNE 17:44:53 80° ESE 17:49:13 10° S
USA 267 3.7 17:38:38 10° SE 17:45:08 63° SW 17:51:39 10° NW
Cosmos 1953 3.3 17:42:11 10° SSW 17:46:07 50° WNW 17:50:05 10° N
Cosmos 1892 4.0 17:45:32 10° NNE 17:48:05 20° ENE 17:48:05 20° ENE
Cosmos 304 Rocket 4.2 17:44:33 10° S 17:48:59 39° ESE 17:53:27 10° NE
HJ-1C 4.3 17:49:57 26° ENE 17:50:11 26° ENE 17:52:58 10° NNE
Cosmos 724 4.5 17:44:22 10° NW 17:50:19 75° WSW 17:56:06 10° SSE
Cosmos 1626 Rocket 3.6 17:49:01 10° N 17:53:15 52° ENE 17:57:27 10° SSE
NOSS 2-3 (D) 3.6 17:50:03 10° SSW 17:53:57 53° ESE 17:57:07 17° NE
Meteor 1-4 Rocket 2.9 17:53:45 10° SSE 17:57:00 38° E 17:59:19 17° NNE
Cosmos 1605 Rocket 4.1 17:52:10 10° SSE 17:58:13 54° E 18:04:23 10° NNE
NOSS 3-1 (C) 3.1 17:53:40 10° SSW 17:58:49 70° ESE 18:04:51 10° NE
IRS-1C Rocket 4.5 17:56:21 10° SE 18:01:16 41° ENE 18:06:11 10° N
Cosmos 1844 Rocket 3.3 17:58:10 10° N 18:03:16 35° NE 18:05:24 26° E
Cosmos 332 Rocket 3.8 17:59:38 10° S 18:04:25 56° ESE 18:09:12 10° NNE
Cosmos 1535 Rocket 4.5 17:58:24 10° S 18:04:39 83° E 18:11:02 10° N
CZ-2C R/B 3.2 18:03:08 10° SW 18:05:16 15° SSW 18:06:53 12° SSE
CZ-4 R/B 1.4 18:02:22 10° SSE 18:06:17 58° ENE 18:10:19 10° N
NOSS 2-3 (C) 3.4 18:02:33 10° SSW 18:06:32 75° SE 18:09:38 20° NE
H-2A R/B 2.4 18:03:51 10° SSE 18:08:10 77° ENE 18:12:22 10° N
SKYMED 2 4.2 18:04:38 10° N 18:08:54 57° WNW 18:13:09 10° SSW
X-37B 0.5 18:06:30 10° W 18:09:41 82° SSW 18:10:16 56° ESE
BREEZE-M DEB (TANK) 3.1 18:08:32 10° WNW 18:14:16 53° N 18:14:54 44° NE
YAOGAN 1 2.4 18:10:07 10° SSE 18:14:25 73° ENE 18:18:45 10° N
Cosmos 220 Rocket 4.1 18:13:18 10° S 18:17:35 52° ESE 18:19:15 33° NE
CZ-4C R/B 3.7 18:14:24 10° N 18:17:41 50° WNW 18:20:52 10° SSW
SWARM C 4.3 18:15:44 10° S 18:19:01 79° E 18:22:20 10° N
SWARM A 4.0 18:15:55 10° S 18:19:13 79° E 18:22:32 10° N
H-2A R/B 2.0 18:15:39 10° NNE 18:19:41 52° E 18:23:46 10° S
Spot 2 4.2 18:17:06 10° S 18:21:12 72° WSW 18:25:32 10° NNW
Cosmos 2278 Rocket 4.2 18:19:33 10° NNE 18:21:01 11° NNE 18:21:01 11° NNE
Meteor 2-10 Rocket 3.5 18:17:57 10° S 18:23:33 74° E 18:28:56 10° NNE
SL-16 R/B 2.4 18:21:42 10° SSW 18:27:21 74° WNW 18:33:03 10° NNE
Cosmos 1408 3.9 18:24:15 10° N 18:26:02 26° NNE 18:26:02 26° NNE
IRAS Rocket 4.2 18:22:25 10° NNE 18:28:01 85° WNW 18:33:31 10° SSW
NOSS 8 (H) 4.4 18:25:16 10° SW 18:28:37 65° NW 18:28:45 64° NW
Cosmos 839 Rocket 4.2 18:22:47 10° NNW 18:30:26 89° ENE 18:34:52 22° SSE
Cosmos 1300 4.2 18:27:35 10° SW 18:31:08 37° WNW 18:34:43 10° N
Cosmos 614 Rocket 3.8 18:26:28 10° NNW 18:31:33 70° ENE 18:33:26 39° SE
Cosmos 371 Rocket 4.2 18:27:00 10° SW 18:31:41 48° WNW 18:36:26 10° N
Iridium 4 Rocket 4.4 18:27:53 10° NNW 18:32:17 45° W 18:37:02 10° SSW
ATLAS 5 CENTAUR R/B 3.7 18:30:04 10° W 18:33:06 20° NNW 18:36:26 10° NNE
Okean O Rocket 3.5 18:29:53 10° SSW 18:33:43 30° W 18:37:36 10° NW
SL-8 R/B 4.1 18:29:16 10° W 18:33:59 57° N 18:35:12 43° NE
Cosmos 2322 Rocket 2.3 18:35:23 10° SSW 18:40:59 75° WNW 18:46:38 10° NNE
H-2A R/B 4.4 18:39:18 10° SSW 18:43:43 26° W 18:48:12 10° NW
DMSP B5D2-2 4.0 18:40:24 10° NNE 18:45:41 84° WNW 18:50:55 10° SSW
Tiangong 2.9 18:43:43 10° W 18:45:38 30° WSW 18:45:38 30° WSW
Cosmos 1844 3.6 18:43:27 10° NNW 18:49:14 65° ENE 18:49:50 61° E
Cosmos 1932 4.4 18:43:42 10° NNW 18:49:55 67° NE 18:51:02 56° ESE
Cosmos 2360 Rocket 2.0 18:46:22 10° SSW 18:52:00 83° ESE 18:54:25 36° NNE
Cosmos 2333 Rocket 4.0 18:46:45 10° S 18:47:59 16° S 18:47:59 16° S
Okean-O 2.6 18:52:50 71° SSW 18:53:13 80° WSW 18:57:41 10° NNW
USA 215 4.5 18:49:59 19° NE 18:53:35 32° N 18:59:13 10° WNW
Cosmos 1602 Rocket 4.5 18:51:11 10° NNW 18:55:21 47° W 18:59:25 10° SSW
USA 229 DEB 3.5 18:55:04 10° SW 19:01:26 82° NW 19:04:46 32° NNE
USA 229 3.5 18:55:11 10° SW 19:01:32 83° NW 19:04:48 33° NNE
Lacrosse 4 Rocket 2.3 18:59:39 10° NW 19:03:49 47° WSW 19:04:08 46° SW
Cosmos 44 3.5 19:01:03 10° SW 19:06:29 78° NW 19:06:59 71° N
Meteor 2-11 Rocket 4.3 19:02:42 10° S 19:08:52 89° W 19:15:04 10° N
MetOp-A 4.4 19:07:42 38° S 19:09:45 66° WSW 19:15:06 10° NNW
Cosmos 2344 4.4 19:02:51 10° NW 19:12:14 82° SW 19:20:14 27° SSE
Cosmos 2100 Rocket 3.9 19:12:38 10° S 19:18:57 88° E 19:25:21 10° N
BREEZE-M R/B 3.5 19:19:31 10° WNW 19:22:09 53° W 19:22:09 53° W
Orbus 7S? 4.5 19:16:29 10° NW 19:22:28 55° WNW 19:22:28 55° WNW
NOSS 3-1 (A) 3.8 19:18:45 10° SW 19:23:59 56° NW 19:25:17 46° N
CSL-04 Rocket 4.3 19:29:58 47° SW 19:30:51 52° W 19:36:18 10° NNW
Cosmos 2173 Rocket 4.4 19:36:02 53° N 19:36:02 53° N 19:40:47 10° N
Cosmos 407 Rocket 4.5 19:30:07 10° NNW 19:33:40 43° NNW 19:33:40 43° NNW
CENTAUR R/B 4.2 19:40:02 10° NNW 19:46:12 30° NNE 19:46:12 30° NNE
Cosmos 1844 Rocket 3.8 19:42:03 10° NW 19:47:06 38° WSW 19:47:06 38° WSW
Cosmos 2278 Rocket 4.3 20:01:18 10° NNW 20:02:52 19° NNW 20:02:52 19° NNW
